• In Slovakia
  • List of Countries
  • For 7 days
  • Water Temperature
  • Satellite Maps
  • Weather Map
  • Weather Widgets
  • user-avatar
    Login

    Hourly Weather Adelaide

    Today, 20 January, Saturday

    Time Temperature Precipitation Wind Pressure Humidity
    00:00 +28°C° 0 mm 4 mps 753 mmHg 50%
    01:00 +27°C° 0 mm 4 mps 753 mmHg 54%
    02:00 +26°C° 0 mm 5 mps 753 mmHg 58%
    03:00 +26°C° 0 mm 4 mps 753 mmHg 58%
    04:00 +26°C° 0.1 mm 4 mps 753 mmHg 60%
    05:00 +26°C° 0.1 mm 5 mps 754 mmHg 63%
    06:00 +25°C° 0.1 mm 5 mps 754 mmHg 65%
    07:00 +27°C° 0.2 mm 5 mps 754 mmHg 59%
    08:00 +29°C° 0.2 mm 4 mps 754 mmHg 54%
    09:00 +34°C° 0 mm 3 mps 755 mmHg 42%
    10:00 +34°C° 0.3 mm 4 mps 755 mmHg 42%
    11:00 +34°C° 0.3 mm 5 mps 754 mmHg 41%
    12:00 +35°C° 0.3 mm 6 mps 754 mmHg 41%
    13:00 +34°C° 0.2 mm 6 mps 754 mmHg 42%
    14:00 +34°C° 0.2 mm 6 mps 754 mmHg 44%
    15:00 +36°C° 0 mm 6 mps 753 mmHg 34%
    16:00 +35°C° 0.2 mm 6 mps 753 mmHg 36%
    17:00 +33°C° 0.2 mm 6 mps 753 mmHg 39%
    18:00 +32°C° 0.2 mm 6 mps 753 mmHg 42%
    19:00 +30°C° 0.3 mm 5 mps 753 mmHg 47%
    20:00 +28°C° 0.3 mm 5 mps 753 mmHg 52%
    21:00 +27°C° 0.3 mm 5 mps 754 mmHg 58%
    22:00 +26°C° 0.1 mm 5 mps 754 mmHg 60%
    23:00 +26°C° 0.1 mm 5 mps 753 mmHg 63%

    Tomorrow, 21 January, Sunday

    Time Temperature Precipitation Wind Pressure Humidity
    00:00 +25°C° 0.1 mm 4 mps 753 mmHg 65%
    01:00 +25°C° 0 mm 4 mps 753 mmHg 67%
    02:00 +25°C° 0 mm 4 mps 753 mmHg 68%
    03:00 +23°C° 0 mm 4 mps 753 mmHg 69%
    04:00 +23°C° 0 mm 4 mps 753 mmHg 69%
    05:00 +23°C° 0 mm 4 mps 753 mmHg 69%
    06:00 +24°C° 0 mm 3 mps 753 mmHg 68%
    07:00 +26°C° 0 mm 3 mps 753 mmHg 60%
    08:00 +29°C° 0 mm 3 mps 753 mmHg 51%
    09:00 +31°C° 0 mm 3 mps 753 mmHg 42%
    10:00 +33°C° 0 mm 3 mps 753 mmHg 39%
    11:00 +35°C° 0 mm 4 mps 752 mmHg 35%
    12:00 +37°C° 0 mm 4 mps 752 mmHg 31%
    13:00 +36°C° 0 mm 4 mps 752 mmHg 32%
    14:00 +36°C° 0 mm 5 mps 751 mmHg 32%
    15:00 +36°C° 0 mm 6 mps 751 mmHg 33%
    16:00 +34°C° 0 mm 5 mps 751 mmHg 39%
    17:00 +32°C° 0 mm 5 mps 751 mmHg 45%
    18:00 +29°C° 0 mm 5 mps 751 mmHg 51%
    19:00 +28°C° 0 mm 5 mps 752 mmHg 55%
    20:00 +26°C° 0 mm 5 mps 752 mmHg 58%
    21:00 +25°C° 0 mm 4 mps 753 mmHg 62%
    22:00 +25°C° 0.2 mm 4 mps 753 mmHg 64%
    23:00 +23°C° 0.2 mm 4 mps 752 mmHg 67%

    Day after tomorrow, 22 January, Monday

    Time Temperature Precipitation Wind Pressure Humidity
    00:00 +22°C° 0.2 mm 4 mps 752 mmHg 70%
    01:00 +22°C° 0.2 mm 4 mps 752 mmHg 72%
    02:00 +22°C° 0.2 mm 4 mps 752 mmHg 74%
    03:00 +21°C° 0.2 mm 3 mps 752 mmHg 75%
    04:00 +21°C° 0.1 mm 3 mps 752 mmHg 76%
    05:00 +21°C° 0.1 mm 3 mps 753 mmHg 77%
    06:00 +21°C° 0.1 mm 3 mps 753 mmHg 77%
    07:00 +22°C° 0 mm 3 mps 754 mmHg 69%
    08:00 +25°C° 0 mm 3 mps 754 mmHg 60%
    09:00 +26°C° 0 mm 4 mps 754 mmHg 52%
    10:00 +27°C° 0 mm 4 mps 754 mmHg 48%
    11:00 +29°C° 0 mm 4 mps 753 mmHg 43%
    12:00 +30°C° 0 mm 5 mps 753 mmHg 39%
    13:00 +30°C° 0 mm 5 mps 753 mmHg 39%
    14:00 +30°C° 0 mm 6 mps 752 mmHg 39%
    15:00 +30°C° 0 mm 6 mps 752 mmHg 38%
    16:00 +28°C° 0 mm 6 mps 752 mmHg 43%
    17:00 +27°C° 0 mm 6 mps 753 mmHg 49%
    18:00 +24°C° 0 mm 6 mps 753 mmHg 54%
    19:00 +23°C° 0 mm 6 mps 753 mmHg 59%
    20:00 +21°C° 0 mm 6 mps 754 mmHg 65%
    21:00 +20°C° 0 mm 6 mps 754 mmHg 71%
    22:00 +19°C° 0 mm 5 mps 754 mmHg 72%
    23:00 +19°C° 0 mm 5 mps 754 mmHg 74%

    23 January, Tuesday

    Time Temperature Precipitation Wind Pressure Humidity
    00:00 +17°C° 0 mm 5 mps 754 mmHg 76%
    01:00 +17°C° 0 mm 5 mps 754 mmHg 78%
    02:00 +18°C° 0 mm 4 mps 754 mmHg 79%
    03:00 +18°C° 0 mm 4 mps 754 mmHg 81%
    04:00 +18°C° 0 mm 4 mps 754 mmHg 80%
    05:00 +18°C° 0 mm 4 mps 755 mmHg 79%
    06:00 +18°C° 0 mm 4 mps 755 mmHg 79%
    07:00 +19°C° 0 mm 4 mps 755 mmHg 69%
    08:00 +21°C° 0 mm 4 mps 755 mmHg 59%
    09:00 +23°C° 0 mm 4 mps 755 mmHg 50%
    10:00 +26°C° 0 mm 4 mps 755 mmHg 45%
    11:00 +27°C° 0 mm 5 mps 755 mmHg 41%
    12:00 +29°C° 0 mm 5 mps 754 mmHg 36%
    13:00 +29°C° 0 mm 6 mps 754 mmHg 38%
    14:00 +29°C° 0 mm 6 mps 753 mmHg 39%
    15:00 +28°C° 0 mm 7 mps 753 mmHg 41%
    16:00 +27°C° 0 mm 7 mps 753 mmHg 45%
    17:00 +26°C° 0 mm 6 mps 753 mmHg 49%
    18:00 +23°C° 0 mm 6 mps 753 mmHg 53%
    19:00 +22°C° 0 mm 6 mps 754 mmHg 58%
    20:00 +21°C° 0 mm 5 mps 754 mmHg 63%
    21:00 +20°C° 0 mm 5 mps 754 mmHg 68%
    22:00 +20°C° 0 mm 5 mps 754 mmHg 70%
    23:00 +19°C° 0 mm 5 mps 754 mmHg 72%

    24 January, Wednesday

    Time Temperature Precipitation Wind Pressure Humidity
    00:00 +19°C° 0 mm 5 mps 753 mmHg 74%
    01:00 +19°C° 0 mm 5 mps 753 mmHg 76%
    02:00 +19°C° 0 mm 4 mps 753 mmHg 78%
    03:00 +18°C° 0 mm 4 mps 753 mmHg 80%
    04:00 +19°C° 0 mm 4 mps 753 mmHg 79%
    05:00 +19°C° 0 mm 4 mps 753 mmHg 77%
    06:00 +19°C° 0 mm 4 mps 753 mmHg 76%
    07:00 +21°C° 0 mm 4 mps 753 mmHg 66%
    08:00 +25°C° 0 mm 4 mps 753 mmHg 57%
    09:00 +27°C° 0 mm 4 mps 753 mmHg 48%
    10:00 +28°C° 0 mm 4 mps 753 mmHg 44%
    11:00 +30°C° 0 mm 5 mps 753 mmHg 40%
    12:00 +32°C° 0 mm 5 mps 752 mmHg 36%
    13:00 +32°C° 0 mm 5 mps 752 mmHg 36%
    14:00 +32°C° 0 mm 6 mps 751 mmHg 36%
    15:00 +32°C° 0 mm 6 mps 751 mmHg 36%
    16:00 +30°C° 0 mm 6 mps 751 mmHg 39%
    17:00 +29°C° 0 mm 6 mps 751 mmHg 43%
    18:00 +27°C° 0 mm 6 mps 751 mmHg 46%
    19:00 +26°C° 0 mm 6 mps 751 mmHg 51%
    20:00 +23°C° 0 mm 6 mps 751 mmHg 56%
    21:00 +22°C° 0 mm 6 mps 751 mmHg 60%
    22:00 +22°C° 0 mm 6 mps 751 mmHg 62%
    23:00 +22°C° 0 mm 6 mps 751 mmHg 63%

    25 January, Thursday

    Time Temperature Precipitation Wind Pressure Humidity
    00:00 +21°C° 0 mm 6 mps 751 mmHg 64%
    01:00 +21°C° 0 mm 5 mps 750 mmHg 66%
    02:00 +21°C° 0 mm 5 mps 750 mmHg 67%
    03:00 +21°C° 0 mm 4 mps 750 mmHg 69%
    04:00 +21°C° 0 mm 4 mps 750 mmHg 67%
    05:00 +22°C° 0 mm 4 mps 750 mmHg 66%
    06:00 +22°C° 0 mm 4 mps 750 mmHg 64%
    07:00 +25°C° 0 mm 4 mps 750 mmHg 57%
    08:00 +27°C° 0 mm 4 mps 750 mmHg 50%
    09:00 +30°C° 0 mm 4 mps 750 mmHg 43%
    10:00 +32°C° 0 mm 4 mps 750 mmHg 41%
    11:00 +33°C° 0 mm 5 mps 749 mmHg 40%
    12:00 +34°C° 0 mm 6 mps 749 mmHg 38%
    13:00 +35°C° 0 mm 5 mps 748 mmHg 37%
    14:00 +35°C° 0 mm 5 mps 748 mmHg 36%
    15:00 +35°C° 0 mm 5 mps 747 mmHg 35%
    16:00 +34°C° 0 mm 6 mps 748 mmHg 38%
    17:00 +32°C° 0 mm 6 mps 748 mmHg 41%
    18:00 +30°C° 0 mm 6 mps 748 mmHg 45%
    19:00 +29°C° 0 mm 6 mps 748 mmHg 47%
    20:00 +28°C° 0 mm 5 mps 749 mmHg 49%
    21:00 +26°C° 0 mm 5 mps 749 mmHg 51%
    22:00 +26°C° 0 mm 5 mps 749 mmHg 54%
    23:00 +25°C° 0 mm 4 mps 749 mmHg 56%
    Show more